K5BV Weather Reports


Display with metric or nautical units.
time (UTC)temp
F
wind
direction
speed
MPH
gust
MPH
rain 1hr
in
rain 24hr
in
rain mn
in
humidity
%
barometer
mb
20211019082305 75 134 3.0 6.0 0.00 0.00 0.00 74 1017.0
20211019081302 74 133 3.0 9.0 0.00 0.00 0.00 74 1017.1
20211019080302 74 138 5.0 7.0 0.00 0.00 0.00 74 1017.2
20211019075304 74 145 5.0 8.0 0.00 0.00 0.00 74 1017.1
20211019074303 75 143 6.0 13.0 0.00 0.00 0.00 74 1017.2
20211019073302 74 124 6.0 9.0 0.00 0.00 0.00 71 1017.3
20211019071302 75 123 6.0 9.0 0.00 0.00 0.00 73 1017.5
20211019070301 75 132 6.0 13.0 0.00 0.00 0.00 69 1017.6
20211019065305 74 120 5.0 8.0 0.00 0.00 0.00 74 1017.8
20211019063302 74 126 4.0 8.0 0.00 0.00 0.00 75 1018.0
20211019062305 74 137 5.0 10.0 0.00 0.00 0.00 73 1018.0
20211019060302 74 116 6.0 9.0 0.00 0.00 0.00 73 1018.2
20211019055305 74 106 3.0 6.0 0.00 0.00 0.00 74 1018.4
20211019054302 74 118 3.0 9.0 0.00 0.00 0.00 73 1018.4
20211019053302 74 113 5.0 9.0 0.00 0.00 0.00 72 1018.5
20211019051302 74 100 6.0 8.0 0.00 0.00 0.00 73 1018.6
20211019050303 73 118 5.0 9.0 0.00 0.00 0.00 74 1018.7
20211019044306 74 111 5.0 8.0 0.00 0.00 0.00 74 1018.7
20211019043305 74 93 5.0 8.0 0.00 0.00 0.00 73 1018.7
20211019042305 74 78 6.0 9.0 0.00 0.00 0.00 72 1018.8
20211019040304 74 87 7.0 12.0 0.00 0.00 0.00 72 1018.8
20211019035306 74 92 7.0 12.0 0.00 0.00 0.00 71 1018.8
20211019033305 74 80 6.0 12.0 0.00 0.00 0.00 74 1018.7
20211019032306 74 90 7.0 13.0 0.00 0.00 0.00 73 1018.8
20211019031304 74 85 7.0 12.0 0.00 0.00 0.00 73 1018.8
20211019030304 74 91 6.0 10.0 0.00 0.00 0.00 72 1018.8
20211019025306 74 92 6.0 9.0 0.00 0.00 0.00 73 1018.8
20211019024305 74 86 3.0 13.0 0.00 0.00 0.00 73 1018.7
20211019023304 74 79 6.0 10.0 0.00 0.00 0.00 71 1018.7
20211019022306 74 96 6.0 10.0 0.00 0.00 0.00 72 1018.7
20211019021305 74 87 6.0 10.0 0.00 0.00 0.00 72 1018.7
20211019020304 74 87 7.0 10.0 0.00 0.00 0.00 71 1018.5
20211019015305 74 81 6.0 9.0 0.00 0.00 0.00 70 1018.5
20211019013304 75 81 6.0 10.0 0.00 0.00 0.00 70 1018.3
20211019012306 75 85 6.0 9.0 0.00 0.00 0.00 69 1018.2
20211019011305 75 85 7.0 10.0 0.00 0.00 0.00 69 1018.1
20211019010304 75 89 5.0 9.0 0.00 0.00 0.00 70 1018.0
20211019003304 75 80 7.0 13.0 0.00 0.00 0.00 67 1017.7
20211019002306 76 87 7.0 10.0 0.00 0.00 0.00 66 1017.6
20211019001304 76 90 5.0 9.0 0.00 0.00 0.00 66 1017.7
20211019000305 77 89 6.0 10.0 0.00 0.00 0.00 62 1017.7
20211018235306 78 81 3.0 12.0 0.00 0.00 0.00 61 1017.6
20211018234305 78 97 7.0 13.0 0.00 0.00 0.00 59 1017.6
20211018233305 79 98 7.0 10.0 0.00 0.00 0.00 59 1017.6
20211018232306 79 91 5.0 12.0 0.00 0.00 0.00 58 1017.6
20211018230304 79 88 7.0 13.0 0.00 0.00 0.00 57 1017.6
20211018225306 80 103 7.0 9.0 0.00 0.00 0.00 57 1017.7
20211018224304 80 94 6.0 10.0 0.00 0.00 0.00 56 1017.8
20211018223305 80 89 5.0 12.0 0.00 0.00 0.00 56 1017.9
20211018221305 80 113 7.0 13.0 0.00 0.00 0.00 56 1017.9
20211018220305 80 97 6.0 12.0 0.00 0.00 0.00 56 1017.9
20211018215306 80 89 4.0 13.0 0.00 0.00 0.00 56 1018.1
20211018214304 80 89 5.0 10.0 0.00 0.00 0.00 56 1018.2
20211018213304 80 91 6.0 12.0 0.00 0.00 0.00 54 1018.2
20211018212307 81 80 5.0 10.0 0.00 0.00 0.00 53 1018.2
20211018211304 81 83 5.0 12.0 0.00 0.00 0.00 53 1018.3
20211018210305 81 72 6.0 13.0 0.00 0.00 0.00 52 1018.4
20211018205307 82 90 7.0 10.0 0.00 0.00 0.00 50 1018.4
20211018204304 82 47 3.0 10.0 0.00 0.00 0.00 51 1018.3
20211018203304 82 56 2.0 9.0 0.00 0.00 0.00 51 1018.4
20211018202305 82 91 4.0 9.0 0.00 0.00 0.00 51 1018.5
20211018201304 82 84 3.0 10.0 0.00 0.00 0.00 51 1018.6
20211018195306 83 75 5.0 9.0 0.00 0.00 0.00 50 1018.9
20211018194304 82 98 3.0 10.0 0.00 0.00 0.00 50 1019.0
20211018193304 82 92 7.0 10.0 0.00 0.00 0.00 51 1019.1
20211018192306 82 94 4.0 10.0 0.00 0.00 0.00 50 1019.2
20211018190304 82 82 5.0 10.0 0.00 0.00 0.00 49 1019.4
20211018185306 82 45 5.0 9.0 0.00 0.00 0.00 48 1019.7
20211018183304 82 87 7.0 12.0 0.00 0.00 0.00 48 1020.1
20211018175306 82 107 7.0 10.0 0.00 0.00 0.00 48 1020.9
20211018173305 81 107 5.0 10.0 0.00 0.00 0.00 48 1021.1
20211018172306 82 83 3.0 10.0 0.00 0.00 0.00 49 1021.1
20211018171305 81 83 6.0 10.0 0.00 0.00 0.00 47 1021.2
20211018170304 81 91 5.0 9.0 0.00 0.00 0.00 48 1021.3
20211018165307 80 106 5.0 8.0 0.00 0.00 0.00 49 1021.4
20211018162306 80 86 2.0 7.0 0.00 0.00 0.00 51 1021.6
20211018161304 80 60 4.0 8.0 0.00 0.00 0.00 53 1021.7
20211018153304 77 28 2.0 8.0 0.00 0.00 0.00 59 1021.9
20211018152306 77 85 3.0 8.0 0.00 0.00 0.00 62 1021.9
20211018151304 76 88 5.0 8.0 0.00 0.00 0.00 64 1021.8
20211018150304 75 71 2.0 7.0 0.00 0.00 0.00 68 1021.7
20211018145306 74 85 5.0 9.0 0.00 0.00 0.00 67 1021.6
20211018143304 73 39 2.0 5.0 0.00 0.00 0.00 71 1021.5
20211018142306 72 34 0.0 5.0 0.00 0.00 0.00 72 1021.4
20211018141304 72 86 1.0 3.0 0.00 0.00 0.00 74 1021.4
20211018140304 72 63 1.0 3.0 0.00 0.00 0.00 75 1021.3
20211018135306 71 86 2.0 6.0 0.00 0.00 0.00 76 1021.2
20211018134304 70 84 2.0 5.0 0.00 0.00 0.00 78 1021.1
20211018131304 68 90 5.0 6.0 0.00 0.00 0.00 85 1020.7
20211018130305 67 88 2.0 5.0 0.00 0.00 0.00 86 1020.6
20211018125306 66 36 1.0 5.0 0.00 0.00 0.00 87 1020.5
20211018124304 66 78 2.0 6.0 0.00 0.00 0.00 87 1020.5
20211018123304 66 85 1.0 2.0 0.00 0.00 0.00 88 1020.6
20211018121305 65 7 0.0 0.0 0.00 0.00 0.00 88 1020.5
20211018120304 65 7 0.0 0.0 0.00 0.00 0.00 88 1020.5
20211018115306 66 7 0.0 0.0 0.00 0.00 0.00 87 1020.6
20211018114304 66 7 0.0 0.0 0.00 0.00 0.00 87 1020.4
20211018113304 67 7 1.0 5.0 0.00 0.00 0.00 86 1020.3
20211018112306 67 20 1.0 6.0 0.00 0.00 0.00 87 1020.3
20211018111304 67 23 3.0 5.0 0.00 0.00 0.00 87 1020.1
20211018110304 67 18 2.0 6.0 0.00 0.00 0.00 88 1020.2
20211018105306 66 35 2.0 7.0 0.00 0.00 0.00 88 1020.2
20211018104304 66 26 3.0 8.0 0.00 0.00 0.00 89 1020.1
20211018103304 65 23 1.0 6.0 0.00 0.00 0.00 88 1020.1
20211018102306 64 341 1.0 3.0 0.00 0.00 0.00 88 1020.2
20211018101303 64 333 0.0 0.0 0.00 0.00 0.00 88 1020.4
20211018100303 64 333 0.0 2.0 0.00 0.00 0.00 87 1020.4
20211018095305 64 322 1.0 5.0 0.00 0.00 0.00 87 1020.4
20211018094304 64 346 1.0 2.0 0.00 0.00 0.00 87 1020.5
20211018093304 64 311 1.0 6.0 0.00 0.00 0.00 86 1020.7
20211018092306 64 334 3.0 5.0 0.00 0.00 0.00 86 1020.6
20211018091304 64 295 0.0 3.0 0.00 0.00 0.00 86 1020.8
20211018090304 64 314 1.0 6.0 0.00 0.00 0.00 85 1020.9
20211018085306 64 311 1.0 6.0 0.00 0.00 0.00 85 1021.0
20211018084306 64 324 2.0 5.0 0.00 0.00 0.00 84 1021.1